EHI
25 26 23 13 6 5 6 7 6 4 2 1 0 0 0 0 0 0 1 4 7 10 14 19 22 24 25 27 29 31 31 29 27 28 30 31 29 27 22 15 10 8 5
44 41 35 28 21 16 13 10 9 8 5 3 2 2 2 2 2 3 4 5 8 13 17 20 21 21 21 22 25 28 30 31 32 33 35 37 38 36 33 28 25 22 19
50 49 50 49 41 28 20 16 14 13 10 5 3 4 5 5 6 7 8 7 7 11 16 17 16 16 14 14 16 20 24 27 30 31 34 38 42 44 42 41 43 44 42
37 46 56 53 41 28 22 19 16 13 9 4 2 3 4 5 5 7 7 5 3 5 8 10 9 8 7 6 7 10 13 16 19 21 23 28 35 40 43 44 49 54 57
26 38 46 38 26 21 19 15 11 7 3 1 1 1 1 2 2 2 3 2 1 1 2 3 2 2 1 1 1 2 4 6 9 10 11 14 22 32 40 42 45 51 54
17 23 26 19 13 12 11 7 3 2 0 0 0 0 0 0 0 0 0 0 0 0 0 0 0 0 0 0 0 0 0 1 2 3 4 5 10 20 29 34 37 41 44
7 9 9 6 4 4 3 2 0 0 0 0 0 0 0 0 0 0 0 0 0 0 0 0 0 0 0 0 0 0 0 0 0 1 1 1 3 7 14 20 24 29 32
1 2 2 1 0 0 0 0 0 0 0 0 0 0 0 0 0 0 0 0 0 0 0 0 0 0 0 0 0 0 0 0 0 0 0 0 1 1 3 7 10 15 18
0 0 0 0 0 0 0 0 0 0 0 0 0 0 0 0 0 0 0 0 0 0 0 0 0 0 0 0 0 0 0 0 0 0 0 0 0 0 0 1 2 4 5
0 0 0 0 0 0 0 0 0 0 0 0 0 0 0 0 0 0 0 0 0 0 0 0 0 0 0 0 0 0 0 0 0 0 0 0 0 0 0 0 0 0 0
0 0 0 0 0 0 0 0 0 0 0 0 0 0 0 0 0 0 0 0 0 0 0 0 0 0 0 0 0 0 0 0 0 0 0 0 0 0 0 0 0 0 0
0 0 0 0 0 0 0 0 0 0 0 0 0 0 0 0 0 0 0 0 0 0 0 0 0 0 0 0 0 0 0 0 0 0 0 0 0 0 0 0 0 0 0
0 0 0 0 0 0 0 0 0 0 0 0 0 0 0 0 0 0 0 0 0 0 0 0 0 0 0 0 0 0 0 0 0 0 0 0 0 0 0 0 0 0 0
0 0 0 0 0 0 0 0 0 0 0 0 0 0 0 0 0 0 0 0 0 0 0 0 0 0 0 0 0 0 0 0 0 0 0 0 0 0 0 0 0 0 0
0 0 0 0 0 0 0 0 0 0 0 0 0 0 0 0 0 0 0 0 0 0 0 0 0 0 0 0 0 0 0 0 0 0 0 0 0 0 0 0 0 0 0
0 0 0 0 0 0 0 0 0 0 0 0 0 0 0 0 0 0 0 0 0 0 0 0 0 0 0 0 0 0 0 0 0 0 0 0 0 0 0 0 0 0 0
0 0 0 0 0 0 0 0 0 0 0 0 0 0 0 0 0 0 0 0 0 0 0 0 0 0 0 0 0 0 0 0 0 0 0 0 0 0 0 0 0 0 0
0 0 0 0 0 0 0 0 0 0 0 0 0 0 0 0 0 0 0 0 0 0 0 0 0 0 0 0 0 0 0 0 0 0 0 0 0 0 0 0 0 0 0
0 0 0 0 0 0 0 0 0 0 0 0 0 0 0 0 0 0 0 0 0 0 0 0 0 0 0 0 0 0 0 0 0 0 0 0 0 0 0 0 0 0 0
0 0 0 0 0 0 0 0 0 0 0 0 0 0 0 0 0 0 0 0 0 0 0 0 0 0 0 0 0 0 0 0 0 0 0 0 0 0 0 0 0 0 0
0 0 0 0 0 0 0 0 0 0 0 0 0 0 0 0 0 0 0 0 0 0 0 0 0 0 0 0 0 0 0 0 0 0 0 0 0 0 0 0 0 0 0
0 0 0 0 0 0 0 0 0 0 0 0 0 0 0 0 0 0 0 0 0 0 0 0 0 0 0 0 0 0 0 0 0 0 0 0 0 0 0 0 0 0 0
0 0 0 0 0 0 0 0 0 0 0 0 0 0 0 0 0 0 0 0 0 0 0 0 0 0 0 0 0 0 0 0 0 0 0 0 0 0 0 0 0 0 0
0 0 0 0 0 0 0 0 0 0 0 0 0 0 0 0 0 0 0 0 0 0 0 0 0 0 0 0 0 0 0 0 0 0 0 0 0 0 0 0 0 0 0
0 0 0 0 0 0 0 0 0 0 0 0 0 0 0 0 0 0 0 0 0 0 0 0 0 0 0 0 0 0 0 0 0 0 0 0 0 0 0 0 0 0 0
0 0 0 0 0 0 0 0 0 0 0 0 0 0 0 0 0 0 0 0 0 0 0 0 0 0 0 0 0 0 0 0 0 0 0 0 0 0 0 0 0 0 0
Wind_Speed
1 2 2 2 2 2 2 3 4 5 4 4 4 4 4 5 5 3 4 8 9 9 9 9 8 7 7 6 6 6 7 7 7 7 7 8 8 9 9 9 9 10 10
3 2 2 2 3 4 4 3 5 4 3 3 4 5 5 5 4 4 1 6 9 9 9 10 10 9 8 7 7 7 8 8 8 8 8 8 9 9 10 11 11 11 12
3 2 1 3 3 3 3 3 5 4 3 4 4 4 4 4 4 4 3 2 4 9 10 10 10 9 9 8 8 8 9 10 10 10 10 10 10 10 10 11 12 12 13
3 1 3 4 2 2 3 3 3 4 5 5 4 4 4 4 5 5 4 4 3 3 8 11 11 10 10 10 11 11 11 12 12 12 12 13 13 12 11 11 12 12 13
3 3 4 3 2 2 3 4 4 4 4 4 5 5 3 4 5 8 6 5 5 3 3 8 12 12 12 12 13 14 14 14 14 14 14 15 15 14 12 12 13 13 13
4 3 4 4 3 3 4 3 2 2 3 4 6 6 4 5 6 6 7 6 3 3 2 1 3 7 12 13 13 14 15 16 16 16 17 17 17 16 15 14 14 14 15
6 4 4 3 2 3 3 2 3 4 4 3 3 4 5 6 6 4 3 3 2 2 2 2 1 2 3 9 10 12 15 16 17 17 17 17 18 18 18 18 17 16 16
4 4 4 2 3 2 0 1 1 2 3 4 3 4 4 4 3 5 4 3 4 4 4 6 4 4 4 3 5 12 14 15 16 17 17 17 18 18 19 20 20 20 19
5 4 3 3 3 3 2 2 3 3 3 4 3 2 3 3 5 4 6 6 5 3 3 4 6 5 6 4 4 8 13 11 14 16 17 17 17 18 19 20 20 21 20
4 4 3 3 3 3 3 3 5 4 4 4 4 3 3 3 3 4 4 5 6 5 4 5 6 5 5 4 5 9 12 10 15 18 19 18 17 17 19 20 20 20 20
3 3 4 3 2 2 3 3 3 3 3 4 4 5 6 4 4 5 6 5 5 4 4 4 4 4 5 5 5 10 15 13 14 16 17 17 17 18 19 20 20 20 20
4 4 4 3 1 2 3 2 1 3 2 2 3 4 4 5 5 5 7 7 6 5 6 5 6 5 6 6 10 13 10 8 10 12 15 17 18 19 19 20 20 20 19
5 5 4 2 1 1 1 1 2 3 3 3 2 3 3 4 4 4 6 7 8 7 7 6 6 6 8 6 6 12 10 8 9 12 14 16 18 18 19 19 19 19 19
7 5 3 1 1 1 2 2 3 4 3 3 5 5 4 4 4 4 5 7 10 9 7 7 5 6 7 6 8 12 8 12 13 14 15 16 18 19 19 19 19 18 18
3 4 2 1 1 2 2 3 4 5 4 4 5 5 5 4 4 5 5 5 8 12 11 8 7 7 6 6 9 7 7 13 15 15 15 16 18 19 20 19 18 18 17
3 1 1 1 2 3 4 4 5 5 5 5 5 6 6 5 5 5 5 6 6 9 11 8 7 8 8 11 15 10 9 18 18 17 17 18 20 20 20 20 19 18 18
1 2 2 2 3 4 5 5 6 7 7 6 6 6 6 6 5 5 5 6 6 7 11 9 7 8 9 10 10 9 10 10 10 18 19 19 19 19 19 19 18 17 17
1 3 3 4 5 5 5 5 6 6 6 6 6 6 7 7 7 6 5 6 7 7 9 12 9 9 10 10 10 10 11 11 8 12 13 13 14 16 17 17 16 15 14
2 3 4 5 5 5 5 6 7 8 8 8 8 8 8 8 8 6 6 7 6 8 7 10 11 9 9 10 10 11 11 8 9 10 10 10 11 12 13 14 13 13 12
3 3 4 5 6 8 11 11 10 9 9 9 9 9 9 8 7 7 7 7 7 7 8 8 9 9 9 9 8 7 7 6 6 7 8 9 10 11 13 13 14 14 12
6 6 6 7 7 7 8 9 9 10 10 10 10 9 10 13 14 10 9 8 8 7 7 8 9 9 9 8 8 7 8 7 7 5 5 5 5 4 6 10 15 15 13
6 6 7 7 7 6 6 9 9 9 10 11 10 9 10 12 13 14 17 18 15 11 9 9 9 10 11 10 8 8 7 8 6 3 3 5 3 4 4 3 6 10 11
6 6 5 5 5 3 2 5 9 10 11 9 9 9 10 12 13 10 12 16 14 16 17 13 12 13 12 10 9 10 9 9 9 5 3 5 4 5 4 5 8 7 8
5 5 4 5 4 1 2 5 10 10 10 9 9 10 11 11 12 12 12 12 11 11 12 10 9 9 9 8 9 10 11 10 8 6 5 4 3 3 4 3 7 7 8
4 5 5 5 5 2 3 5 8 10 8 9 10 11 12 12 14 15 13 12 11 10 11 10 8 9 12 13 11 7 7 6 4 2 3 2 2 2 2 3 4 6 7
4 5 5 5 5 4 3 5 9 9 9 10 10 10 12 12 14 14 11 9 10 8 6 6 6 7 7 7 8 5 4 3 2 1 1 1 1 1 2 1 1 2 4
Wind_Direction
106 86 57 48 343 53 56 3 356 24 14 338 328 335 345 346 343 23 135 163 165 173 179 185 194 204 213 220 224 227 229 233 235 236 236 236 235 234 231 228 226 219 212
76 58 62 61 17 38 41 357 359 2 347 350 340 338 340 334 332 341 122 167 182 188 193 197 202 208 217 227 237 243 244 245 246 244 243 241 240 240 237 233 231 227 221
92 60 73 78 39 20 30 20 3 343 342 346 337 339 335 330 319 313 310 255 196 200 206 209 209 213 225 237 249 259 264 264 264 262 259 254 249 246 243 241 237 234 230
94 80 71 76 27 19 39 28 25 9 3 349 342 334 325 311 298 282 264 259 251 221 208 214 218 219 227 239 250 259 267 272 275 276 275 271 266 261 256 251 246 242 238
96 78 77 63 360 42 48 22 44 11 343 334 311 290 301 312 310 299 288 271 261 250 223 214 220 230 239 249 256 260 262 265 270 275 278 279 279 278 274 267 260 255 249
70 70 93 57 14 46 55 45 6 338 307 287 292 304 307 286 280 273 273 270 254 251 265 272 215 241 253 260 264 267 268 268 268 271 274 277 278 282 282 281 276 269 261
69 40 79 88 34 63 56 15 14 332 316 316 315 301 286 277 274 272 304 308 316 344 340 318 283 277 270 270 272 273 273 272 272 272 275 279 283 285 286 284 282 278 272
80 76 45 29 53 30 312 36 24 326 315 338 324 306 300 295 320 359 344 338 355 356 338 319 324 311 299 287 272 278 277 272 272 271 274 278 282 285 286 284 281 279 276
92 69 60 32 22 336 53 19 3 347 338 323 296 302 310 313 340 323 342 340 334 324 321 323 304 289 283 277 269 272 275 275 271 271 272 275 279 282 284 283 281 279 277
110 107 83 59 24 356 26 8 49 349 336 309 324 341 330 332 313 310 309 300 303 312 302 289 285 287 284 279 273 266 265 250 256 262 265 269 274 278 282 283 281 280 279
115 113 99 71 31 359 59 32 13 348 330 346 350 343 333 325 295 281 297 307 310 295 291 296 307 306 306 293 277 266 258 244 242 250 256 261 267 274 278 280 281 280 281
148 130 117 90 2 28 49 15 355 299 339 351 331 318 314 315 322 323 314 310 305 314 329 331 318 302 294 288 286 298 287 255 232 235 247 255 263 271 274 276 279 280 282
129 106 95 89 28 42 303 279 281 274 274 274 274 276 291 309 313 308 305 303 303 304 303 303 301 306 304 306 313 313 300 265 240 236 242 250 259 265 269 272 275 278 280
89 112 108 136 252 282 298 338 304 283 261 247 262 267 271 273 276 282 285 291 291 287 280 278 281 288 293 297 297 302 293 279 260 247 243 245 252 258 262 266 270 274 277
114 111 131 186 246 268 274 279 270 280 273 257 258 261 255 262 267 267 269 271 280 287 285 284 281 281 283 286 283 289 287 283 277 266 253 245 246 251 255 260 264 268 272
65 78 234 225 240 252 253 252 267 271 274 266 263 267 268 266 268 271 270 269 267 274 281 281 281 282 291 293 293 291 288 290 286 275 257 244 240 243 248 255 259 263 268
143 243 251 258 265 265 263 260 265 273 276 277 282 286 288 288 285 285 283 282 282 282 287 290 288 291 289 287 286 282 283 275 270 266 258 250 245 244 246 248 251 257 263
270 293 298 290 282 282 279 280 290 305 315 318 317 316 309 305 301 297 292 292 291 291 290 294 296 294 290 290 285 280 282 276 269 272 264 254 248 245 243 241 242 248 254
298 299 300 300 305 319 336 351 359 0 353 340 329 319 312 306 299 300 299 294 291 290 288 289 289 287 286 284 285 285 280 277 281 280 273 261 254 251 247 239 236 240 244
322 326 338 348 3 30 36 24 10 352 341 330 318 309 304 300 298 297 293 284 281 279 277 278 282 285 285 284 283 285 290 290 291 296 299 293 273 256 249 240 234 237 235
4 12 11 11 18 52 38 22 358 344 333 318 308 304 304 303 296 286 282 280 281 279 279 279 281 283 285 288 289 293 294 295 287 281 283 282 276 259 246 242 240 239 232
16 16 18 15 18 40 47 23 356 334 316 306 306 309 307 300 302 300 291 286 278 275 277 278 282 282 284 286 289 289 288 288 284 262 265 273 265 262 252 238 240 234 224
21 16 12 14 21 79 49 346 331 318 306 306 311 311 311 311 312 305 306 305 293 281 274 273 275 277 282 286 291 291 284 280 273 264 263 268 247 254 248 239 223 220 215
19 359 6 11 352 17 238 301 318 314 311 312 312 308 307 308 308 311 306 297 288 283 276 274 271 279 287 291 287 283 280 275 268 253 225 250 245 247 249 219 207 213 223
10 351 12 350 336 349 240 297 323 322 317 319 315 312 309 306 306 306 302 294 289 285 280 276 276 281 285 286 286 284 278 271 269 235 184 228 262 269 255 226 209 221 244
9 353 350 337 345 1 3 342 336 331 328 324 316 312 311 312 311 308 303 294 290 293 305 313 305 298 294 299 312 313 319 309 299 298 122 253 270 305 293 266 237 247 265